sat.trackr.live / text

‹ back to catalog

STARLINK-31537

NORAD 59365 · 2024-060T

PAYLOAD ACTIVE UNKNOWN

§ Identity

Operator
Country
US
Launch date
2024-03-31
Launch site
AFETR
Launch vehicle
Mass (kg)
RCS (m²)

Purposes: comms

External: N2YO · Heavens-Above · Gunter

§ Orbital elements

Epoch: 2026-05-25T03:41:24.724032Z

Period
94.27 min
Inclination
43.0012°
Eccentricity
0.0001180
Mean motion
15.27577342 rev/d
Perigee alt
482.2 km
Apogee alt
483.9 km
Semi-major
6,861.2 km
B*
5.7271e-6
RAAN
188.3159°
Arg perigee
275.4015°
Mean anomaly
84.6702°
Rev number
12,175

§ Raw data

STARLINK-315371 59365U 24060T   26145.15375838 -.00000104  00000+0  57271-5 0  99902 59365  43.0012 188.3159 0001180 275.4015  84.6702 15.27577342121755

JSON: /api/v1/satellites/59365 · /tle

For live sub-satellite position, see the globe view (requires WebGL).

§ Visibility from observer

Set your observer location to see the next 7 days of passes ≥ 10°. The values pass through the URL so the page stays shareable.

No JS? Fill the form by hand. The geolocation button needs JavaScript.